Regional Weather Roundup
Issued by NWS

Home | Current Version | Previous Version | Text Only | Print | Product List | Glossary On
Versions: 1 2 3 4 5 6 7 8 9 10 11 12 13 14 15 16 17 18 19 20 21 22 23 24 25 26 27 28 29 30 31 32 33 34 35 36 37 38 39 40 41 42 43 44 45 46 47 48 49 50
000
ASUS43 KLMK 260902
RWRKY
KENTUCKY REGIONAL WEATHER ROUNDUP
NATIONAL WEATHER SERVICE LOUISVILLE KY
500 AM EDT THU MAY 26 2016

NOTE "FAIR" INDICATES FEW OR NO CLOUDS BELOW 12,000 FEET
WITH NO SIGNIFICANT WEATHER AND/OR OBSTRUCTIONS TO VISIBILITY.

KYZ001>023-026-027-061>063-070>075-261000-
WESTERN AND SOUTH CENTRAL KENTUCKY

CITY           SKY/WX    TMP DP  RH WIND       PRES   REMARKS
PADUCAH        PTCLDY    69  61  75 SW7       30.02S
HENDERSON      PTCLDY    64  61  88 S5        30.02S
OWENSBORO      PTCLDY    65  65 100 SE5       30.06S
HOPKINSVILLE   CLEAR     64  64 100 S5        30.07S
BOWLING GREEN  MOCLDY    64  62  93 CALM      30.09S
GLASGOW        NOT AVBL
$$

KYZ024-025-028>034-038-045-046-053-261000-
NORTH CENTRAL KENTUCKY

CITY           SKY/WX    TMP DP  RH WIND       PRES   REMARKS
LOUISVILLE/SDF CLOUDY    70  62  76 S6        30.07R
LOUISVILLE/LOU CLOUDY    69  62  78 S5        30.07S
FORT KNOX      CLOUDY    66  63  91 S5        30.07S
$$

KYZ035>037-039>044-047>052-055>060-089>105-261000-
NORTHEAST KENTUCKY

CITY           SKY/WX    TMP DP  RH WIND       PRES   REMARKS
LEXINGTON      TSTM      65  63  93 VRB3      30.11R FOG
COVINGTON      CLOUDY    67  62  84 S5        30.06F
FRANKFORT      CLOUDY    67  62  84 S5        30.08R
$$

KYZ054-064>069-076>088-106>120-261000-
SOUTHEAST KENTUCKY

CITY           SKY/WX    TMP DP  RH WIND       PRES   REMARKS
JACKSON        CLOUDY    68  58  70 CALM      30.13R
LONDON         CLOUDY    66  59  78 CALM      30.14R
SOMERSET       NOT AVBL
MIDDLESBORO    CLOUDY    63  61  96 CALM      30.15S
MONTICELLO     LGT RAIN  65  63  93 N10       30.18R
$$





USA.gov is the U.S. government's official web portal to all federal, state and local government web resources and services.